KE5KZS Weather Reports


Display with metric or nautical units.
time (UTC)temp
F
wind
direction
speed
MPH
gust
MPH
rain 1hr
in
rain 24hr
in
rain mn
in
humidity
%
barometer
mb
20260508164016 73 180 4.0 8.0 0.00 0.55 0.55 72 1011.7
20260508163016 72 158 3.0 5.0 0.00 0.55 0.55 72 1012.0
20260508162023 72 180 2.0 6.0 0.00 0.55 0.55 73 1012.2
20260508161016 72 180 3.0 6.0 0.00 0.55 0.55 72 1012.3
20260508160016 71 135 3.0 9.0 0.00 0.55 0.55 75 1012.3
20260508155016 70 158 3.0 8.0 0.00 0.55 0.55 74 1012.3
20260508154016 69 158 3.0 6.0 0.00 0.55 0.55 75 1012.5
20260508153016 68 158 3.0 8.0 0.00 0.55 0.55 78 1012.6
20260508152016 67 158 3.0 8.0 0.00 0.55 0.55 83 1012.7
20260508151016 65 158 3.0 6.0 0.00 0.55 0.55 83 1012.6
20260508150016 65 113 2.0 3.0 0.00 0.55 0.55 85 1012.9
20260508145516 64 113 1.0 4.0 0.00 0.55 0.55 85 1013.0
20260508144516 64 113 1.0 2.0 0.00 0.55 0.55 86 1013.0
20260508143516 64 135 2.0 6.0 0.00 0.55 0.55 87 1013.1
20260508142516 63 158 1.0 3.0 0.00 0.55 0.55 90 1013.0
20260508141516 63 0.0 1.0 0.00 0.55 0.55 91 1013.3
20260508140516 63 135 1.0 3.0 0.00 0.55 0.55 91 1013.3
20260508135516 62 135 2.0 7.0 0.00 0.55 0.55 92 1013.1
20260508134505 62 158 3.0 7.0 0.00 0.55 0.55 93 1012.9
20260508134036 62 158 3.0 7.0 0.00 0.55 0.55 93 1012.9
20260508133016 62 158 4.0 8.0 0.01 0.55 0.55 94 1012.9
20260508132016 62 135 2.0 5.0 0.02 0.55 0.55 94 1012.9
20260508131016 61 0.0 3.0 0.03 0.55 0.55 94 1012.9
20260508130016 60 0.0 2.0 0.03 0.55 0.55 94 1013.0
20260508125016 60 135 1.0 4.0 0.05 0.55 0.55 94 1013.2